Location: Bottenau
(48.5138°N, 8.0462°E)
Time: 15:49:20
(UTC+00:00)

SL-4 R/B - Pass Details

Date: 18 April 2021
Orbit: 427 x 663 km, 51.6° (Epoch: 06 May)

Event Time Altitude Azimuth Distance (km) Brightness Sun altitude
Exits shadow 23:41:47 20° 69° (ENE) 1,515 4.4 -30.2°
Drops below altitude 10° 23:43:21 10° 74° (ENE) 2,085 5.2 -30.2°
Sets 23:45:45 0° 78° (ENE) 2,998 6.0 -30.2°
